Regional Weather Roundup
Issued by NWS

Home | Current Version | Previous Version | Graphics & Text | Print | Product List | Glossary On
Versions: 1 2 3 4 5 6 7 8 9 10 11 12 13 14 15 16 17 18 19 20 21 22 23 24 25 26 27 28 29 30 31 32 33 34 35 36 37 38 39 40 41 42 43 44 45 46 47 48 49 50
000
ASUS43 KDTX 242201
RWRMI
MICHIGAN HOURLY REGIONAL WEATHER ROUNDUP
NATIONAL WEATHER SERVICE DETROIT/PONTIAC MI
600 PM EDT TUE MAY 24 2016

NOTE: "FAIR" INDICATES FEW OR NO CLOUDS BELOW 12,000 FEET WITH NO
SIGNIFICANT WEATHER AND/OR OBSTRUCTION TO VISIBILITY.

MIZ047>049-052>055-059>063-066>070-074>076-081>083-242300-
SOUTHEAST LOWER MICHIGAN

CITY           SKY/WX    TMP DP  RH WIND       PRES   REMARKS
ADRIAN         SUNNY     83  48  29 W12G17    29.99F
ALMA           SUNNY     82  48  31 W12       29.96S
ANN ARBOR      SUNNY     83  50  31 VRB7      29.98S
BAD AXE        SUNNY     84  45  25 W15       29.94F
CARO           SUNNY     83  48  29 SW13      29.94S
DETROIT CITY   SUNNY     82  48  30 S9        29.97F
DETROIT        PTSUNNY   84  48  28 SW14      29.98F
FLINT          SUNNY     85  48  27 W10       29.96F
GROSSE ILE     SUNNY     75  50  41 S10       29.97F
HILLSDALE      SUNNY     82  36  19 SW9       30.01S
HOWELL         PTSUNNY   84  49  29 W10G16    29.98S

CITY           SKY/WX    TMP DP  RH WIND       PRES   REMARKS
JACKSON        MOSUNNY   83  47  28 W10G17    29.99S
LAMBERTVILLE   SUNNY     84  46  25 SW10      29.99F
LANSING        SUNNY     84  50  30 SW9       29.97F
LAPEER         FAIR      84  42  22 SW7       29.96F
MASON          MOSUNNY   83  49  31 SW3       29.98S
MONROE         SUNNY     83  49  30 W6G18     29.97F
PONTIAC        MOSUNNY   83  46  27 W8        29.96F
PORT HOPE        N/A     68  54  60 SE9       29.92F
PORT HURON     SUNNY     82  50  32 S8        29.97S
TRI CITIES     MOSUNNY   86  48  26 SW10      29.94F
MIDLAND        FAIR      84  49  29 SW16      29.93S
TROY           SUNNY     85  43  22 SW10      29.99S
SAGINAW HB     SUNNY     84  43  23 SW12G20   29.94S
$$
MIZ043>046-050>051-056>058-064>065-071>073-077>080-242300-
SOUTHWEST LOWER MICHIGAN

CITY           SKY/WX    TMP DP  RH WIND       PRES   REMARKS
BATTLE CREEK   SUNNY     82  47  29 SW13G24   29.99S
BENTON HARBOR  MOSUNNY   83  50  31 W8        29.96S
BIG RAPIDS     SUNNY     79  42  26 SW16      29.96R
COLDWATER      MOSUNNY   82  45  26 W13       29.99S
FREMONT        FAIR      81  49  32 SW16G22   29.96F
HOLLAND        SUNNY     83  50  31 W12       29.98S
GRAND RAPIDS   MOSUNNY   85  50  29 W13       29.98R
IONIA          FAIR      83  46  27 SW8G23    29.96S
KALAMAZOO      SUNNY     85  48  27 SW12      29.98S
LUDINGTON      LGT RAIN  62  54  74 S10       29.96R
MARSHALL       MOSUNNY   83  49  30 SW12      29.98S
MOUNT PLEASANT SUNNY     82  49  30 SW12G22   29.95S
MUSKEGON       PTSUNNY   80  48  32 S12       29.96F
SOUTH HAVEN    SUNNY     82  46  27 W7        29.97S
$$
MIZ016>042-242300-
NORTHERN LOWER MICHIGAN

CITY           SKY/WX    TMP DP  RH WIND       PRES   REMARKS
ALPENA         PTSUNNY   77  51  40 CALM      29.89R
BEAVER ISLAND  CLOUDY    61  48  63 W12       29.94F
BELLAIRE       CLOUDY    82  40  22 W5        29.90S
CADILLAC       MOSUNNY   80  42  26 SW10G21   29.95R
CHARLEVOIX     CLOUDY    65  47  53 W12       29.96R
FRANKFORT      CLOUDY    69  54  60 SW6       29.94R
GAYLORD        MOSUNNY   84  41  21 W10       29.92S
GRAYLING       SUNNY     85  43  23 SW13G18   29.93S
HARBOR SPRINGS CLOUDY    69  47  44 W9        29.92R
HOUGHTON LAKE  SUNNY     82  44  26 SW15G22   29.94S
MANISTEE       CLOUDY    75  50  41 SW9G18    29.95R
OSCODA         CLOUDY    86  43  22 S16       29.89F
PELLSTON       CLOUDY    77  43  29 W17G24    29.92R
ROGERS CITY    SUNNY     65  51  60 CALM      29.91F
TRAVERSE CITY  CLOUDY    82  36  19 W13G22    29.89R
$$
MIZ007>008-015-242300-
EASTERN UPPER MICHIGAN

CITY           SKY/WX    TMP DP  RH WIND       PRES   REMARKS
KINROSS          N/A     68  55  64 NW17      29.93R
MACKINAC ISLAN CLOUDY    65  47  51 NW8       29.92S
NEWBERRY       RAIN      60  59  97 CALM      29.94S
S. S. MARIE    LGT RAIN  64  55  72 W8        29.94R
MUNISING         N/A     56  55  97 S7        29.90F
$$
MIZ004>006-011>014-085-242300-
CENTRAL UPPER MICHIGAN

CITY           SKY/WX    TMP DP  RH WIND       PRES   REMARKS
MANISTIQUE     HVY RAIN  54  53  97 S3        29.94R
ESCANABA       CLOUDY    64  61  88 SE7       29.90F
MENOMINEE      PTSUNNY   72  63  73 CALM      29.89S
SAWYER-GWINN   LGT RAIN  59  57  94 S7        29.92F
$$
MIZ001>003-009>011-084-242300-
WESTERN UPPER MICHIGAN

CITY           SKY/WX    TMP DP  RH WIND       PRES   REMARKS
IRON MOUNTAIN  PTSUNNY   72  62  71 NW3       29.89F
HOUGHTON       CLOUDY    57  54  89 E8        29.93S
COPPER HARBOR    N/A     52  49  89 E3        29.93S
$$

ABBREVIATIONS USED IN REMARKS
   TC - TEMPERATURE IN CELSIUS
  WCI - WIND CHILL INDEX
   HX - HEAT INDEX
  VSB - VISIBILITY





USA.gov is the U.S. government's official web portal to all federal, state and local government web resources and services.